Temperature
17 17 17 17 17 17 17 17 17 17 17 17 17 17 17 17 17 17 17 17 17 17 17 17 17 16 16 16 16 16 16 16 16 16 16 16 16 16 16 16 16 15 15
17 17 17 17 17 17 17 17 17 17 17 17 17 17 17 17 17 17 17 17 17 17 17 17 16 16 16 16 16 16 16 16 16 16 16 16 16 15 16 16 15 15 15
17 17 17 17 17 17 17 17 17 17 17 17 17 17 17 17 17 17 17 17 17 17 17 17 17 16 16 16 16 16 16 16 16 16 16 16 16 16 15 15 15 15 15
17 18 17 17 17 17 17 17 17 17 17 17 17 17 17 17 17 17 17 17 17 16 17 17 17 17 17 16 16 16 16 16 16 16 16 16 16 16 16 16 15 15 15
17 18 17 17 17 17 17 17 17 17 17 17 17 17 17 17 17 17 17 17 17 17 16 17 17 17 17 17 17 16 16 16 16 16 16 16 16 16 16 16 15 15 15
18 18 18 17 17 17 17 17 17 17 17 17 17 17 17 17 17 17 17 17 17 17 17 16 16 17 17 17 17 16 16 16 16 16 16 16 16 16 16 16 15 15 15
18 18 18 18 18 18 17 17 17 17 17 17 17 17 17 17 17 17 17 17 17 17 17 17 16 16 16 17 17 17 16 16 16 16 16 16 16 16 16 15 15 15 15
18 18 18 18 18 18 17 17 17 17 17 17 17 18 18 18 18 18 17 17 17 17 17 17 17 17 17 16 16 17 17 16 16 16 16 16 16 16 15 15 15 15 15
18 18 18 18 18 18 17 17 17 17 17 17 17 18 18 18 18 18 18 17 17 17 17 17 17 17 17 16 16 17 17 17 16 16 16 16 16 16 15 15 15 15 15
18 18 18 18 18 17 18 17 17 17 17 17 17 17 17 18 18 18 18 18 17 17 17 17 17 17 17 16 17 17 17 17 16 16 16 16 16 15 15 15 15 15 15
18 18 18 18 18 17 17 17 17 17 17 17 17 17 17 17 17 17 18 18 18 18 17 17 17 17 17 16 16 16 17 17 16 16 16 16 16 15 15 15 15 15 15
18 18 17 18 18 17 17 17 17 17 17 17 17 17 17 17 18 18 18 18 18 18 17 17 17 17 17 16 16 16 17 17 16 16 16 16 16 15 15 15 15 15 14
18 18 18 18 17 17 17 17 17 17 17 17 17 17 17 17 17 17 17 17 17 17 17 17 17 17 17 16 16 16 17 16 16 16 16 16 16 15 15 15 15 14 14
18 18 18 18 17 17 17 17 17 17 17 17 17 17 17 17 17 17 17 17 17 17 17 17 17 17 16 16 16 16 16 16 16 16 16 16 16 15 15 15 15 14 14
18 17 17 17 17 17 17 17 17 17 17 17 17 17 17 17 17 17 17 17 17 17 17 17 17 17 16 16 16 16 16 16 16 16 16 16 15 15 15 15 14 14 14
18 18 17 17 17 17 17 17 17 17 17 17 17 17 17 17 17 17 17 16 16 16 16 17 17 16 16 16 16 16 16 16 16 16 15 15 15 15 15 14 14 14 14
18 17 17 17 17 17 17 17 17 17 17 17 17 16 16 17 16 16 16 16 16 16 16 16 16 16 16 16 15 15 15 15 15 15 15 15 15 14 14 14 14 14 14
18 17 17 17 17 17 17 17 17 17 16 16 16 16 16 16 16 16 16 16 16 16 16 16 16 16 15 15 15 15 15 14 14 14 14 14 14 14 14 14 14 13 13
18 17 17 17 17 17 17 17 17 16 16 16 16 16 16 16 16 16 16 16 16 16 16 15 15 15 15 15 15 14 14 14 14 14 14 14 14 14 13 13 13 13 13
18 17 17 17 17 17 17 16 16 16 16 16 16 16 16 16 16 16 16 16 16 16 15 15 15 15 15 15 14 14 14 14 13 13 13 13 13 13 13 13 13 13 12
17 17 17 17 17 16 16 16 16 16 16 16 16 16 16 16 16 15 15 15 15 15 15 15 15 14 14 14 14 14 13 13 13 13 13 13 13 12 12 12 12 12 12
17 17 17 17 17 16 17 16 16 16 16 16 16 16 15 15 15 15 15 15 15 15 15 14 14 14 14 14 14 13 13 13 12 12 12 12 12 12 11 11 11 11 11
17 17 17 17 16 17 17 16 16 16 16 15 15 15 15 15 15 15 15 15 15 15 15 14 14 14 14 14 13 13 13 12 12 12 12 12 11 11 11 11 11 11 10
17 17 17 16 16 16 16 16 16 16 15 15 15 15 15 14 14 14 14 14 14 14 14 14 14 14 13 13 13 13 12 12 12 12 11 11 11 11 10 10 10 10 10
17 17 16 16 16 16 16 16 16 15 15 15 14 14 14 14 14 14 14 14 13 13 13 13 13 13 13 13 13 12 12 12 12 11 11 11 11 10 10 10 10 10 10
17 16 16 16 15 15 16 15 15 14 14 14 14 14 14 14 14 13 13 13 13 13 13 13 13 13 12 12 12 12 12 12 12 11 11 11 10 10 10 9 9 9 9
Wind_Speed
4 4 3 3 4 4 5 4 4 4 4 5 4 5 4 3 3 4 8 11 10 9 10 10 10 10 9 9 10 10 10 10 9 9 9 9 8 8 7 7 7 6 6
4 3 4 3 3 4 4 4 4 4 4 4 4 4 4 4 4 5 6 10 11 11 10 11 11 11 10 10 11 11 11 11 10 10 10 9 9 9 9 8 8 8 7
4 4 3 4 4 4 5 4 4 4 4 4 5 5 4 4 4 5 6 6 9 12 12 12 11 11 11 11 11 12 12 12 12 12 11 10 10 10 10 9 9 8 8
5 5 4 4 4 5 5 4 4 4 3 4 4 4 4 4 5 6 7 7 6 8 12 13 12 12 12 12 12 12 12 12 12 12 12 11 11 11 11 10 10 10 10
6 6 4 3 5 5 5 5 5 4 4 3 4 4 4 4 4 6 6 7 7 7 8 12 14 13 12 12 12 13 13 13 13 12 12 12 12 12 12 11 11 11 11
7 6 6 5 6 5 5 4 4 4 3 4 4 3 3 4 5 5 6 7 7 8 9 8 10 13 15 14 13 13 13 13 13 13 13 13 13 12 12 12 12 12 12
8 7 6 5 6 5 5 6 5 6 5 4 4 4 4 6 6 5 6 6 7 7 7 8 8 8 11 16 16 14 13 14 14 14 15 15 14 13 13 13 13 13 13
8 8 7 6 6 6 6 6 6 6 5 5 4 3 3 5 6 7 6 7 7 7 8 9 9 9 9 9 12 16 15 14 15 15 15 15 15 14 14 14 14 14 13
9 8 8 7 6 7 6 7 7 8 6 5 5 4 4 3 2 4 6 6 6 6 7 8 9 9 10 9 8 13 16 16 15 14 14 15 15 15 15 14 14 14 14
8 8 8 8 7 7 6 8 8 7 6 6 5 6 6 4 4 3 5 6 6 7 7 7 8 9 10 9 9 8 13 15 15 15 14 15 15 16 15 14 14 13 13
7 8 8 7 7 7 8 8 6 8 7 7 6 5 6 6 7 6 5 4 5 5 6 7 6 7 9 10 9 10 12 13 14 14 14 14 14 14 15 14 14 13 13
5 7 8 7 7 7 7 8 7 9 8 8 7 7 6 6 6 6 7 6 5 5 5 5 6 6 8 9 9 8 10 12 13 14 14 13 13 13 14 14 13 13 12
5 5 6 6 6 7 8 7 8 8 8 8 8 8 7 8 7 6 7 6 6 5 5 6 6 6 7 7 7 8 10 12 13 13 13 13 13 13 13 13 12 12 11
4 4 5 6 7 7 8 7 7 8 7 8 9 9 7 8 7 7 7 6 6 6 6 6 4 5 6 7 6 8 8 11 12 13 13 13 13 13 12 12 12 11 11
4 5 5 6 7 7 8 8 7 8 7 8 8 9 8 6 7 7 7 7 7 7 7 5 5 5 5 6 5 7 7 9 11 12 13 13 12 12 11 11 11 11 10
5 5 6 6 7 7 6 7 7 7 7 7 6 7 7 7 6 6 7 7 6 7 7 5 4 4 5 5 6 7 7 7 10 11 12 12 12 11 11 12 11 11 11
5 6 6 6 6 6 6 5 6 6 7 7 7 7 7 7 6 6 6 7 7 7 7 6 4 4 5 6 5 6 6 6 7 11 12 11 11 11 11 11 11 11 12
5 5 5 5 5 5 5 6 7 6 7 8 8 7 7 6 7 7 6 7 7 6 7 7 5 5 6 6 6 6 6 5 5 8 11 11 11 10 11 11 11 11 12
5 5 4 5 4 4 5 5 6 6 7 7 7 7 7 7 7 6 6 7 6 6 5 6 6 4 4 5 5 5 4 4 4 6 9 10 10 10 10 11 11 11 11
4 4 4 4 3 3 3 4 5 5 6 6 6 6 6 6 7 6 6 6 5 5 5 6 5 5 4 4 4 4 4 4 4 4 5 7 8 10 10 11 11 12 12
4 4 3 3 3 3 2 3 4 4 5 5 5 5 4 3 3 4 5 5 5 6 6 6 6 5 5 4 5 5 4 3 3 4 4 5 7 7 8 11 11 12 12
3 3 3 3 2 2 2 3 4 4 4 4 4 4 4 3 3 3 4 5 5 6 7 6 6 6 6 5 4 5 5 4 4 4 5 5 5 5 6 7 10 12 12
3 3 2 2 2 1 1 2 4 4 3 3 3 3 4 2 3 3 3 4 4 4 5 6 6 6 5 5 5 6 6 6 5 4 5 4 4 5 5 7 11 12 12
3 2 2 2 1 0 1 1 4 4 3 3 2 2 3 3 2 3 3 3 3 2 2 3 4 4 4 3 5 5 5 4 3 3 4 4 4 4 4 6 11 13 13
3 3 2 2 2 1 1 1 5 3 2 2 1 1 2 2 2 3 3 3 3 2 1 1 1 1 1 2 3 4 4 5 4 4 5 4 4 4 4 4 8 13 13
3 3 2 2 2 1 1 1 4 3 2 2 2 1 1 1 1 2 4 4 4 3 2 1 1 2 3 4 5 5 5 5 4 4 5 5 4 4 4 4 6 9 11
Wind_Direction
164 154 154 164 171 157 164 173 164 160 165 174 182 174 177 172 170 172 150 164 182 190 191 192 196 197 198 197 194 194 197 197 197 198 198 197 196 196 195 196 197 198 198
167 174 174 178 182 182 174 176 171 176 188 180 188 184 192 188 182 192 180 172 186 196 201 201 204 204 206 207 205 204 206 207 208 209 208 208 209 208 208 209 210 210 209
182 196 193 191 188 180 174 192 188 189 194 190 192 193 200 208 195 199 203 194 186 193 200 206 212 210 211 213 213 212 213 214 214 211 211 213 212 213 215 217 217 216 216
208 213 215 205 186 196 194 188 205 199 196 204 199 208 203 206 212 209 211 209 207 197 194 203 212 213 215 220 220 216 214 214 212 212 212 213 214 215 217 220 222 221 220
215 218 221 208 206 206 210 216 196 209 204 213 216 207 217 214 214 219 219 217 213 217 207 191 203 213 217 222 224 223 218 216 213 214 216 217 218 220 222 224 225 225 225
222 225 221 212 221 214 211 224 215 218 228 227 240 226 230 223 220 222 226 221 216 218 221 212 203 207 212 220 224 226 224 221 217 218 219 221 223 223 223 226 228 228 228
227 223 234 215 226 223 219 216 217 212 217 218 230 236 234 227 226 224 227 228 218 219 220 220 221 217 206 211 218 222 223 223 220 220 221 222 225 226 226 227 230 231 229
230 225 227 231 223 223 222 222 219 229 223 210 227 244 245 223 218 222 218 219 225 221 219 218 221 222 230 214 206 211 219 223 224 224 223 222 224 225 227 228 229 230 232
228 233 232 236 233 228 223 225 223 228 231 227 227 238 259 259 247 209 218 222 222 226 228 225 221 222 224 228 216 203 210 217 221 223 223 223 223 224 225 227 228 230 233
236 232 233 234 236 237 231 232 225 229 235 238 236 236 250 271 269 253 219 213 213 222 231 232 226 219 221 225 221 218 206 212 219 224 226 224 223 223 223 224 227 228 230
237 239 235 234 233 238 237 239 238 234 235 241 245 246 244 244 246 254 260 243 230 226 227 231 235 229 224 225 221 215 200 208 216 222 225 225 224 223 224 226 227 228 228
229 234 235 233 236 240 240 241 243 239 238 243 247 249 246 246 245 248 256 255 252 243 233 236 234 229 229 228 224 204 197 209 217 221 222 222 223 222 224 225 225 225 224
235 234 240 238 242 243 245 246 244 248 241 241 244 247 249 250 255 252 253 261 264 259 241 236 230 229 230 224 218 196 205 212 218 220 221 222 221 222 222 216 214 214 217
248 253 246 243 245 247 247 243 244 241 238 239 244 247 250 250 250 248 248 254 260 257 243 238 230 225 228 226 212 200 217 208 214 218 221 221 219 217 213 208 209 212 214
245 243 245 246 250 252 253 248 245 243 239 238 242 240 244 249 247 247 246 242 249 260 257 240 234 222 219 224 204 218 223 207 209 214 216 212 206 203 202 203 204 207 209
248 250 251 251 254 257 256 250 243 238 238 238 240 244 246 248 249 248 247 245 243 250 260 260 252 243 229 228 208 219 223 203 206 204 202 200 199 201 201 200 200 202 201
240 242 248 254 259 262 260 255 254 247 242 240 240 239 244 249 247 251 249 246 244 243 251 260 255 242 233 235 220 223 222 218 206 191 189 190 192 195 196 197 199 198 191
241 243 248 253 260 265 262 257 258 253 250 246 244 244 247 246 242 248 252 252 251 248 249 256 258 254 246 231 223 224 223 217 206 178 181 186 189 192 194 194 192 188 184
244 246 245 252 261 268 263 258 256 254 252 252 250 248 251 251 250 251 250 252 253 250 250 252 259 258 252 228 216 220 222 215 208 183 177 184 189 191 193 192 187 182 180
237 239 241 250 256 261 266 264 258 254 254 253 253 257 261 256 256 257 251 250 251 254 250 249 249 247 241 224 210 215 221 214 218 202 186 185 185 189 190 187 184 180 179
229 224 226 236 249 253 274 280 267 255 257 260 256 256 259 270 294 274 268 264 258 253 252 250 248 243 236 218 218 218 218 212 224 212 200 196 189 189 187 188 186 183 181
218 216 219 227 244 274 12 327 292 270 262 261 260 261 261 251 238 229 248 254 258 256 259 255 254 250 244 236 225 217 216 214 227 203 204 214 194 192 185 183 176 178 181
201 204 218 225 235 306 360 293 287 276 267 268 272 281 281 279 261 255 231 222 237 243 250 257 258 257 252 238 226 225 220 225 232 195 197 211 195 200 188 175 168 175 180
205 205 207 211 226 45 47 298 286 254 263 265 263 260 271 289 308 308 279 266 268 268 259 255 261 263 260 242 230 231 227 226 218 187 194 209 198 200 190 177 173 180 183
201 205 206 219 234 158 72 299 287 250 241 244 259 274 278 277 26 329 277 267 270 271 110 103 313 252 209 202 213 217 210 212 223 206 201 209 198 193 188 191 183 186 190
203 208 200 217 231 236 110 325 294 264 252 248 236 237 52 343 13 301 264 259 260 269 278 256 206 196 198 187 198 220 222 225 229 216 197 204 196 188 191 198 191 189 195
Height
1577 1578 1578 1578 1580 1581 1581 1582 1583 1583 1584 1585 1586 1587 1588 1588 1589 1590 1590 1589 1590 1591 1591 1592 1592 1593 1594 1595 1596 1596 1597 1598 1598 1599 1599 1600 1600 1601 1601 1601 1602 1602 1602
1577 1578 1578 1578 1580 1581 1582 1582 1583 1583 1584 1585 1586 1586 1587 1588 1588 1589 1590 1589 1589 1590 1590 1591 1592 1592 1593 1594 1595 1595 1596 1597 1597 1598 1599 1599 1600 1600 1600 1601 1601 1601 1601
1576 1577 1579 1579 1580 1580 1581 1581 1582 1584 1584 1585 1585 1586 1587 1587 1588 1588 1589 1589 1589 1589 1589 1590 1591 1591 1592 1593 1593 1594 1595 1596 1596 1597 1597 1598 1598 1599 1599 1599 1600 1600 1600
1576 1577 1578 1579 1579 1580 1581 1581 1582 1583 1584 1584 1585 1585 1586 1586 1586 1586 1587 1588 1588 1589 1588 1588 1589 1590 1590 1591 1592 1592 1593 1594 1595 1595 1596 1596 1597 1597 1597 1598 1598 1598 1598
1575 1576 1577 1578 1578 1579 1580 1581 1582 1582 1583 1583 1584 1584 1584 1585 1584 1585 1586 1586 1586 1587 1587 1586 1587 1588 1588 1589 1590 1590 1591 1592 1592 1593 1594 1594 1595 1595 1595 1596 1596 1596 1596
1574 1575 1576 1576 1577 1578 1578 1579 1580 1580 1581 1581 1583 1583 1583 1583 1583 1583 1584 1584 1584 1584 1585 1585 1585 1586 1586 1587 1587 1588 1589 1589 1590 1591 1591 1592 1592 1593 1593 1593 1593 1593 1594
1572 1573 1574 1575 1575 1576 1577 1578 1578 1579 1580 1580 1581 1581 1581 1581 1581 1581 1582 1582 1582 1582 1583 1583 1583 1584 1584 1584 1585 1585 1586 1587 1587 1588 1588 1589 1589 1590 1590 1590 1590 1591 1591
1570 1572 1572 1573 1574 1574 1575 1575 1576 1577 1578 1578 1579 1579 1579 1580 1578 1579 1579 1579 1579 1580 1580 1580 1580 1581 1581 1582 1582 1582 1583 1584 1584 1585 1585 1586 1586 1587 1587 1587 1587 1587 1588
1567 1568 1569 1571 1571 1572 1573 1573 1574 1574 1575 1576 1577 1577 1577 1576 1577 1577 1576 1576 1576 1577 1577 1578 1578 1578 1578 1579 1579 1579 1580 1580 1581 1581 1582 1582 1583 1583 1584 1584 1584 1584 1584
1564 1565 1567 1567 1568 1569 1570 1570 1571 1572 1572 1573 1574 1574 1575 1575 1575 1574 1574 1574 1574 1574 1574 1575 1575 1575 1575 1575 1575 1576 1576 1577 1578 1578 1579 1579 1579 1580 1580 1580 1580 1580 1580
1561 1562 1563 1564 1565 1566 1566 1567 1568 1568 1569 1570 1570 1571 1571 1571 1572 1572 1572 1572 1571 1571 1571 1571 1571 1572 1572 1572 1572 1572 1572 1573 1574 1574 1575 1575 1576 1576 1576 1576 1576 1576 1577
1559 1559 1560 1561 1561 1562 1563 1563 1564 1564 1565 1566 1566 1567 1568 1568 1568 1568 1568 1568 1568 1568 1568 1568 1568 1568 1568 1568 1569 1569 1569 1569 1570 1570 1571 1572 1572 1572 1572 1573 1573 1573 1573
1557 1557 1558 1558 1558 1559 1559 1559 1559 1560 1561 1561 1562 1563 1564 1564 1565 1565 1564 1564 1564 1564 1564 1564 1564 1564 1564 1564 1564 1564 1565 1565 1565 1566 1567 1567 1568 1568 1569 1569 1569 1569 1569
1554 1554 1554 1555 1555 1555 1555 1555 1555 1556 1556 1557 1558 1559 1559 1560 1561 1561 1561 1561 1560 1560 1560 1560 1560 1560 1560 1560 1560 1560 1560 1560 1561 1561 1562 1563 1563 1564 1564 1564 1565 1565 1565
1551 1551 1551 1552 1552 1552 1551 1551 1551 1551 1552 1553 1554 1554 1555 1556 1556 1556 1556 1557 1557 1556 1556 1556 1556 1556 1556 1556 1556 1556 1556 1556 1556 1557 1557 1558 1559 1559 1560 1560 1560 1561 1561
1549 1549 1549 1549 1549 1548 1548 1548 1548 1548 1548 1548 1549 1549 1550 1551 1551 1552 1552 1552 1552 1553 1552 1552 1552 1552 1551 1552 1551 1551 1551 1551 1551 1552 1552 1553 1554 1554 1555 1556 1556 1556 1557
1546 1546 1546 1546 1546 1545 1545 1544 1545 1544 1544 1545 1545 1545 1546 1546 1547 1548 1548 1548 1548 1548 1547 1547 1547 1547 1547 1546 1547 1547 1547 1547 1547 1547 1548 1548 1549 1550 1550 1551 1551 1552 1552
1544 1544 1543 1543 1543 1542 1542 1541 1541 1541 1541 1541 1541 1542 1542 1542 1542 1543 1543 1543 1543 1543 1543 1542 1542 1542 1542 1542 1542 1542 1542 1543 1543 1543 1543 1544 1544 1545 1545 1546 1546 1547 1547
1542 1541 1541 1540 1540 1539 1539 1538 1538 1538 1538 1538 1538 1538 1538 1538 1538 1539 1539 1539 1539 1539 1538 1538 1537 1537 1537 1537 1537 1537 1538 1538 1538 1538 1538 1539 1539 1540 1540 1541 1541 1542 1543
1539 1539 1538 1538 1537 1536 1536 1536 1535 1535 1534 1534 1535 1535 1534 1534 1534 1534 1534 1534 1534 1534 1533 1533 1532 1532 1532 1532 1532 1532 1532 1533 1533 1534 1534 1534 1535 1535 1536 1536 1537 1537 1538
1537 1537 1536 1536 1535 1534 1533 1533 1533 1532 1531 1531 1531 1531 1531 1531 1530 1530 1530 1530 1530 1529 1529 1528 1528 1527 1527 1527 1527 1527 1528 1528 1529 1529 1530 1530 1531 1531 1531 1531 1532 1532 1533
1535 1534 1534 1533 1533 1532 1531 1530 1530 1529 1529 1528 1528 1528 1527 1527 1527 1526 1526 1525 1525 1525 1524 1524 1523 1523 1523 1523 1523 1523 1523 1524 1524 1525 1525 1526 1527 1527 1527 1527 1527 1528 1529
1532 1532 1531 1531 1530 1530 1529 1528 1527 1527 1526 1525 1525 1524 1524 1524 1523 1523 1522 1521 1521 1520 1520 1520 1519 1519 1519 1518 1518 1518 1519 1519 1520 1520 1521 1522 1523 1523 1523 1523 1524 1524 1525
1530 1530 1529 1528 1528 1527 1526 1526 1525 1524 1523 1522 1521 1521 1521 1520 1520 1520 1519 1519 1518 1517 1517 1516 1516 1515 1515 1515 1514 1515 1515 1515 1516 1516 1517 1518 1518 1519 1519 1520 1520 1521 1521
1527 1527 1526 1526 1525 1524 1524 1523 1522 1521 1521 1520 1519 1518 1518 1517 1517 1516 1516 1515 1514 1514 1513 1513 1512 1511 1511 1511 1511 1511 1511 1512 1512 1513 1513 1514 1514 1515 1515 1516 1516 1517 1518
1524 1524 1523 1523 1522 1522 1521 1520 1519 1519 1518 1517 1516 1515 1515 1514 1514 1513 1513 1512 1511 1511 1510 1509 1509 1508 1508 1508 1507 1508 1508 1509 1509 1509 1509 1510 1510 1511 1511 1512 1513 1513 1514